Wind_Speed
17 19 20 21 22 24 27 30 32 33 34 35 36 38 39 40 42 43 45 47 49 51 53 54 56 57 57 58 58 57 57 56 54 52 49 47 45 43 41 38 37 35 33 31
19 21 23 24 25 27 28 31 33 34 35 37 38 40 42 43 45 48 50 52 54 56 58 59 60 61 62 62 62 62 62 61 59 56 53 50 47 44 42 39 36 34 32 30
22 24 27 27 28 30 31 32 34 36 38 39 40 42 45 47 50 53 55 58 60 62 63 65 66 67 68 68 68 66 65 64 61 58 55 52 49 45 42 39 35 33 31 29
25 27 29 30 30 32 34 36 38 39 41 42 44 47 50 54 56 59 61 64 66 67 69 71 72 72 73 72 71 69 67 65 63 60 57 54 50 45 41 39 35 32 30 28
29 30 33 34 36 38 39 41 43 44 46 48 52 54 56 60 63 66 68 70 72 74 75 75 76 76 75 75 73 71 69 66 63 60 57 54 51 47 43 40 36 33 30 27
31 34 36 38 40 42 44 46 47 49 52 55 58 61 62 65 67 69 72 74 76 77 78 78 78 78 76 74 71 67 63 59 56 54 51 49 48 45 42 39 37 33 30 27
33 35 38 41 42 45 47 50 52 55 58 61 64 66 68 71 73 76 77 78 78 78 76 75 73 72 69 65 61 58 54 51 49 48 46 44 43 42 40 38 37 33 29 27
35 37 40 42 45 47 49 52 56 58 61 65 68 71 73 76 78 78 78 76 74 72 68 65 63 61 57 53 50 48 46 44 44 43 43 43 41 41 40 39 38 34 30 28
37 39 42 44 47 50 53 56 59 63 66 70 73 75 77 77 76 73 70 67 63 60 57 53 50 48 45 43 42 41 39 39 39 39 39 40 40 39 41 40 38 34 30 28
39 41 43 47 50 54 57 61 65 68 72 74 76 76 75 72 67 63 58 55 52 48 45 41 40 39 39 39 38 38 37 37 36 36 37 38 40 41 40 38 38 35 31 29
41 44 47 50 54 58 62 65 69 72 73 74 73 69 66 61 55 51 47 45 43 41 38 37 36 37 38 39 39 37 36 34 33 34 35 36 39 43 42 37 36 34 31 30
45 48 52 55 59 64 67 70 73 73 71 68 65 61 57 51 47 44 42 40 38 38 37 36 37 37 38 38 38 37 35 32 31 30 31 33 36 40 41 38 37 35 34 32
49 53 56 60 64 67 70 72 72 69 66 62 57 53 49 45 41 39 38 37 36 36 36 37 38 38 38 38 38 36 33 30 28 26 27 30 34 35 37 38 38 37 36 34
53 57 60 63 67 70 71 71 67 63 58 54 50 46 43 40 38 37 36 35 35 36 37 38 38 38 37 37 36 34 30 27 24 23 25 29 31 33 36 37 38 38 37 35
56 59 63 67 70 71 70 67 63 57 52 47 44 41 39 38 36 35 34 35 35 37 38 39 38 38 36 35 33 30 26 23 22 21 23 28 30 32 35 36 39 39 37 35
58 62 66 69 72 71 68 64 59 53 48 45 42 39 38 37 36 36 36 37 38 39 39 39 38 36 35 33 30 25 21 18 18 18 22 27 30 32 35 36 39 39 37 35
62 65 69 72 73 71 66 61 56 51 47 44 41 39 38 37 37 37 38 39 40 41 40 39 37 35 33 29 25 19 15 13 14 17 23 29 31 33 35 37 38 38 36 34
66 70 72 74 73 69 63 58 52 48 45 43 41 39 39 39 39 40 40 40 41 40 38 37 35 33 29 24 19 13 10 11 14 19 24 30 32 33 35 37 39 37 35 33
68 71 72 72 69 65 60 55 50 46 43 41 40 40 41 42 43 42 42 42 41 39 36 34 32 28 24 19 13 8 9 12 16 21 27 31 34 34 36 37 37 36 34 32
69 71 72 70 66 61 57 52 48 44 42 41 41 42 43 43 43 43 42 41 40 38 35 31 28 24 18 13 8 7 11 15 20 26 30 33 34 34 35 35 36 35 32 31
70 72 71 69 63 58 53 49 46 43 42 42 43 45 45 44 43 43 42 40 37 35 31 27 23 18 12 6 6 10 16 21 26 29 32 33 34 34 34 33 34 33 31 29
71 72 70 67 61 55 50 47 44 42 42 43 44 45 44 44 43 42 40 38 34 30 26 20 16 11 4 5 10 16 21 26 29 31 33 33 33 33 32 32 32 31 29 27
70 70 69 64 58 52 47 44 42 42 42 43 44 44 44 44 43 40 37 33 29 25 20 15 11 4 5 10 16 21 25 28 30 32 33 33 32 31 31 31 31 29 27 25
70 69 66 61 56 50 44 41 40 40 41 43 44 44 44 43 39 36 34 30 25 21 16 11 4 3 10 15 20 25 26 28 30 31 32 31 30 29 29 29 28 27 25 23
69 67 64 59 53 47 42 40 39 39 41 42 42 42 41 40 37 34 30 26 21 16 12 6 3 9 15 19 23 26 28 30 30 30 30 29 28 27 27 27 25 23 22 20
67 66 61 56 51 45 41 39 39 40 41 41 41 40 39 37 35 31 27 22 18 13 9 7 9 14 19 22 24 27 29 30 30 29 28 27 25 24 24 23 22 21 19 18
65 62 58 52 46 42 39 38 38 40 41 41 41 40 38 36 32 28 24 19 15 11 9 10 13 18 22 24 26 27 29 29 29 28 27 25 23 22 21 20 20 18 17 17
Wind_Direction
310 305 304 303 299 295 294 295 296 296 294 294 293 292 292 291 291 290 291 291 291 291 291 291 293 294 294 294 294 294 294 294 294 294 293 293 293 294 294 295 296 297 296 295
312 308 306 304 302 298 295 294 294 294 294 294 293 292 291 290 290 290 290 290 290 290 290 290 291 291 290 291 290 290 290 290 290 290 289 289 289 289 289 290 291 291 291 292
311 308 306 305 304 301 299 299 298 298 298 298 297 296 294 293 292 291 291 290 290 289 289 288 288 287 287 287 287 287 287 287 286 286 285 285 285 284 283 283 284 285 286 286
311 308 307 308 305 304 303 303 302 301 301 300 298 297 295 294 292 291 290 289 288 287 287 286 286 286 286 286 286 286 286 284 283 282 280 280 279 278 276 277 277 279 279 278
313 312 311 310 310 310 309 307 306 305 303 300 298 297 294 292 291 290 290 289 289 289 289 288 288 287 287 287 287 286 285 283 281 279 276 274 272 270 269 268 268 269 270 270
314 313 312 312 312 312 311 308 308 305 302 299 298 297 296 294 293 293 292 292 292 291 291 290 290 289 289 288 288 286 284 281 278 274 271 268 265 262 261 259 258 259 261 261
315 314 312 313 312 312 308 308 306 304 304 303 302 301 300 298 297 296 295 295 294 293 293 292 292 291 290 289 288 286 282 278 274 270 267 263 258 255 252 251 250 250 252 251
316 315 313 314 312 311 310 309 308 307 306 304 303 302 300 299 298 298 298 297 297 296 295 295 294 293 292 290 288 285 281 277 273 267 263 257 253 249 244 244 242 242 244 241
319 318 317 317 316 315 314 312 310 309 307 306 305 304 302 302 302 302 301 301 300 299 299 299 298 297 295 293 291 288 283 279 274 267 261 254 249 244 238 237 235 235 232 230
322 321 320 319 319 317 315 314 312 311 309 308 307 307 307 306 306 305 305 304 303 303 303 302 300 299 298 296 295 292 287 282 273 267 260 252 245 238 234 232 228 225 221 220
325 325 323 322 320 318 317 315 314 313 312 311 311 311 310 310 309 308 307 306 306 306 305 304 301 300 299 298 296 294 290 284 275 269 258 248 239 233 228 224 220 218 214 211
327 326 325 324 322 320 319 318 317 316 315 315 315 315 314 313 312 310 309 308 308 307 307 306 304 304 302 299 298 296 292 284 277 269 255 242 234 226 221 217 215 211 207 205
328 327 326 325 324 322 320 320 319 319 319 319 319 319 318 318 317 315 313 311 310 310 310 308 307 306 303 300 300 298 293 283 274 264 249 236 225 218 213 209 208 205 203 202
329 328 327 325 324 323 323 323 323 323 323 324 324 323 322 321 321 319 317 315 314 314 313 311 310 309 305 302 301 298 291 282 269 253 238 226 218 211 206 204 201 200 199 198
329 328 327 327 326 327 327 326 327 328 328 328 327 326 325 325 324 323 320 318 317 316 315 313 312 310 307 304 302 297 289 278 261 244 227 215 209 203 199 197 194 193 194 195
330 329 329 329 330 330 330 331 331 331 331 330 329 328 327 326 325 324 322 320 318 318 316 314 313 311 309 307 302 295 285 270 251 226 212 204 199 196 193 191 188 189 191 194
332 332 332 333 333 334 333 333 332 332 332 331 330 329 328 326 325 324 322 320 319 318 317 315 314 313 311 308 303 293 276 253 223 205 198 193 190 187 187 186 185 186 190 193
334 335 335 335 335 335 335 334 333 332 332 331 331 330 328 327 325 324 323 322 320 320 318 316 315 315 313 309 301 283 255 222 202 191 187 184 183 182 183 182 183 185 188 192
336 336 336 336 336 336 335 335 334 333 332 331 331 330 329 327 325 324 324 323 322 321 319 317 316 316 313 309 293 261 218 196 188 180 175 176 177 177 177 179 183 184 187 189
337 337 337 337 338 337 336 335 334 334 333 331 331 331 330 328 327 326 325 325 324 322 321 319 318 315 310 303 274 220 190 179 173 169 169 171 174 175 176 178 181 183 185 187
337 338 338 339 339 338 336 335 335 334 334 333 332 331 331 330 329 328 327 327 326 325 323 320 318 317 307 281 208 178 168 163 160 162 165 167 170 173 176 178 180 182 185 187
338 339 339 339 340 339 337 336 335 335 335 334 333 333 332 332 331 330 329 329 329 329 328 324 322 318 288 187 166 158 156 155 155 159 163 165 169 172 175 177 179 182 186 189
338 339 340 340 340 340 339 338 337 337 337 336 335 335 335 335 334 333 334 333 333 334 334 330 325 307 179 162 157 154 153 153 155 159 162 164 167 170 174 177 179 183 188 191
339 340 340 341 341 341 340 339 339 339 339 339 339 339 339 339 339 338 338 339 338 340 343 341 338 161 158 155 153 152 153 153 155 158 161 163 167 170 173 176 180 184 190 195
339 340 341 341 341 341 341 342 342 341 342 343 343 343 344 344 345 345 346 348 350 352 357 11 91 141 148 150 150 150 151 152 154 156 159 162 166 169 172 177 182 186 191 197
340 341 342 342 342 343 342 343 344 344 346 347 348 349 350 349 350 353 355 357 1 10 30 70 114 136 142 144 146 149 151 152 154 157 159 161 165 168 172 177 182 187 193 197
340 341 342 342 343 342 343 345 345 347 348 350 352 353 354 355 357 359 4 9 19 37 67 100 123 135 141 143 144 146 149 152 154 157 159 161 164 167 171 175 180 185 189 191
Height
5836 5833 5830 5828 5826 5823 5819 5815 5812 5808 5804 5800 5796 5792 5788 5784 5780 5777 5773 5769 5765 5761 5757 5752 5748 5744 5740 5737 5733 5729 5726 5724 5721 5719 5717 5715 5712 5709 5707 5704 5702 5699 5696 5694
5832 5828 5825 5823 5820 5816 5813 5809 5805 5800 5796 5792 5788 5784 5779 5774 5770 5765 5761 5756 5752 5747 5742 5737 5733 5729 5725 5721 5717 5714 5711 5708 5706 5704 5702 5701 5699 5698 5696 5694 5692 5690 5687 5686
5827 5823 5820 5817 5814 5809 5805 5801 5797 5792 5789 5783 5778 5773 5768 5762 5757 5752 5746 5741 5736 5730 5725 5720 5715 5710 5707 5703 5699 5696 5693 5691 5689 5687 5687 5686 5685 5685 5684 5683 5681 5680 5679 5677
5821 5819 5814 5813 5807 5802 5798 5793 5788 5782 5777 5772 5766 5761 5755 5748 5742 5736 5730 5724 5717 5711 5706 5700 5695 5690 5686 5682 5678 5675 5673 5671 5669 5669 5669 5669 5670 5670 5671 5670 5670 5670 5670 5669
5815 5811 5807 5803 5798 5793 5788 5783 5777 5771 5765 5759 5753 5748 5742 5733 5726 5718 5711 5703 5696 5690 5683 5677 5671 5665 5662 5658 5655 5652 5650 5649 5648 5648 5649 5650 5652 5654 5656 5657 5659 5660 5660 5660
5809 5804 5799 5796 5789 5783 5778 5771 5766 5759 5752 5745 5738 5732 5726 5716 5707 5699 5690 5682 5674 5667 5659 5653 5646 5640 5637 5633 5630 5627 5626 5625 5625 5626 5628 5630 5633 5637 5640 5643 5646 5649 5650 5651
5803 5798 5792 5787 5780 5775 5769 5763 5754 5746 5738 5729 5720 5712 5704 5695 5685 5676 5667 5658 5649 5642 5635 5628 5621 5616 5613 5609 5606 5604 5604 5604 5604 5605 5608 5611 5615 5620 5624 5629 5633 5637 5640 5642
5796 5790 5787 5779 5772 5766 5759 5750 5741 5732 5723 5713 5704 5694 5683 5673 5662 5652 5643 5634 5625 5617 5612 5605 5598 5593 5591 5588 5585 5584 5583 5584 5584 5586 5589 5593 5598 5603 5609 5614 5620 5625 5629 5633
5789 5784 5776 5769 5761 5754 5746 5737 5728 5718 5707 5696 5685 5673 5662 5650 5640 5629 5620 5611 5604 5597 5592 5587 5581 5576 5573 5571 5568 5567 5566 5566 5566 5568 5570 5575 5580 5586 5592 5599 5606 5613 5619 5624
5781 5775 5768 5760 5752 5743 5733 5723 5712 5700 5688 5676 5663 5651 5639 5628 5618 5609 5601 5593 5587 5581 5576 5573 5568 5563 5560 5557 5554 5552 5550 5549 5549 5551 5553 5557 5564 5571 5577 5585 5593 5601 5609 5615
5773 5767 5759 5751 5741 5731 5720 5709 5696 5683 5670 5656 5642 5631 5620 5610 5601 5593 5586 5580 5574 5569 5564 5561 5557 5553 5549 5545 5541 5538 5536 5535 5534 5535 5536 5541 5547 5554 5563 5572 5582 5591 5599 5607
5765 5757 5749 5740 5729 5717 5705 5693 5679 5666 5653 5639 5625 5613 5604 5595 5588 5581 5575 5569 5564 5559 5554 5550 5546 5541 5537 5532 5528 5525 5523 5521 5521 5521 5523 5527 5532 5540 5550 5561 5571 5581 5590 5599
5756 5747 5738 5727 5716 5703 5690 5677 5663 5648 5634 5622 5611 5600 5591 5583 5577 5570 5564 5559 5554 5549 5545 5540 5535 5530 5525 5520 5516 5512 5510 5508 5508 5509 5511 5515 5521 5530 5540 5551 5562 5572 5582 5591
5746 5736 5727 5716 5703 5690 5675 5661 5647 5633 5621 5609 5598 5590 5581 5574 5568 5562 5556 5550 5545 5540 5535 5529 5524 5518 5513 5508 5504 5500 5498 5497 5497 5499 5502 5506 5514 5522 5532 5543 5554 5565 5575 5584
5737 5727 5715 5703 5689 5675 5659 5645 5632 5620 5609 5599 5590 5581 5573 5566 5560 5554 5548 5542 5537 5532 5525 5519 5513 5508 5502 5497 5492 5489 5487 5487 5488 5490 5494 5500 5508 5517 5527 5537 5549 5560 5570 5579
5728 5716 5703 5689 5674 5659 5644 5631 5618 5608 5598 5589 5581 5573 5566 5559 5553 5547 5541 5534 5528 5522 5515 5509 5503 5497 5491 5486 5482 5480 5479 5479 5480 5484 5489 5496 5504 5513 5524 5534 5545 5556 5566 5575
5716 5704 5690 5676 5661 5646 5632 5618 5607 5597 5588 5580 5573 5566 5559 5552 5546 5539 5533 5526 5519 5512 5505 5498 5492 5487 5482 5477 5474 5472 5472 5473 5476 5480 5486 5493 5502 5511 5522 5532 5543 5554 5564 5573
5702 5689 5675 5660 5646 5633 5621 5609 5599 5589 5580 5572 5565 5558 5551 5544 5537 5530 5524 5516 5509 5502 5495 5488 5483 5477 5473 5469 5467 5466 5467 5469 5473 5478 5484 5492 5502 5511 5522 5532 5542 5552 5561 5570
5692 5678 5664 5650 5636 5622 5611 5600 5591 5582 5574 5566 5558 5551 5544 5536 5528 5521 5513 5506 5499 5492 5486 5480 5474 5470 5466 5464 5462 5463 5465 5468 5472 5478 5485 5493 5502 5512 5522 5532 5542 5551 5560 5568
5683 5669 5655 5641 5628 5615 5603 5593 5584 5576 5568 5560 5552 5545 5537 5529 5520 5512 5504 5497 5489 5482 5477 5472 5467 5463 5460 5459 5459 5461 5464 5468 5473 5479 5487 5496 5505 5514 5524 5533 5542 5551 5560 5568
5674 5661 5647 5633 5621 5608 5597 5586 5578 5570 5562 5554 5545 5537 5529 5521 5512 5503 5495 5488 5482 5474 5469 5465 5461 5458 5457 5457 5458 5461 5465 5469 5475 5482 5490 5499 5508 5517 5526 5535 5543 5552 5559 5567
5666 5652 5639 5626 5613 5603 5592 5582 5573 5565 5557 5548 5540 5531 5522 5513 5505 5496 5488 5480 5474 5468 5463 5459 5457 5455 5455 5456 5459 5463 5467 5473 5479 5487 5495 5503 5512 5520 5529 5537 5545 5553 5560 5567
5657 5644 5631 5618 5607 5596 5586 5577 5568 5560 5552 5543 5534 5524 5515 5506 5497 5488 5481 5474 5468 5463 5459 5456 5455 5454 5455 5458 5461 5466 5471 5478 5484 5492 5499 5507 5516 5524 5531 5539 5546 5553 5560 5567
5651 5638 5625 5612 5601 5591 5582 5574 5565 5557 5549 5540 5530 5519 5510 5501 5492 5483 5475 5469 5463 5459 5456 5454 5454 5454 5457 5460 5465 5470 5476 5483 5490 5497 5504 5512 5519 5526 5533 5541 5548 5554 5560 5566
5644 5631 5619 5607 5597 5587 5579 5571 5563 5555 5546 5537 5527 5517 5507 5497 5488 5480 5473 5467 5462 5458 5456 5455 5455 5457 5460 5464 5469 5475 5481 5488 5495 5502 5509 5516 5523 5529 5536 5542 5549 5554 5560 5565
5638 5625 5612 5601 5591 5582 5575 5567 5559 5551 5543 5534 5525 5515 5506 5497 5487 5480 5473 5467 5463 5460 5458 5457 5459 5461 5465 5469 5475 5481 5487 5494 5500 5507 5514 5520 5526 5532 5538 5544 5550 5555 5560 5564
5632 5620 5609 5599 5590 5581 5573 5565 5557 5549 5540 5532 5523 5514 5505 5496 5488 5480 5474 5470 5466 5464 5463 5463 5464 5467 5471 5476 5482 5487 5494 5500 5506 5512 5519 5524 5530 5535 5541 5546 5551 5555 5559 5564